Regional Weather Roundup
Issued by NWS

Home | Current Version | Previous Version | Text Only | Print | Product List | Glossary Off
Versions: 1 2 3 4 5 6 7 8 9 10 11 12 13 14 15 16 17 18 19 20 21 22 23 24 25 26 27 28 29 30 31 32 33 34 35 36 37 38 39 40 41 42 43 44 45 46 47 48 49 50

000
ASUS43 KDTX 040710
RWRMI
MICHIGAN HOURLY REGIONAL WEATHER ROUNDUP
NATIONAL WEATHER SERVICE DETROIT/PONTIAC MI
ISSUED BY NATIONAL WEATHER SERVICE GRAND RAPIDS MI
300 AM EDT FRI SEP 04 2015

NOTE: "FAIR" INDICATES FEW OR NO CLOUDS BELOW 12,000 FEET WITH NO
SIGNIFICANT WEATHER AND/OR OBSTRUCTION TO VISIBILITY.

MIZ047>049-052>055-059>063-066>070-074>076-081>083-040800-
SOUTHEAST LOWER MICHIGAN

CITY           SKY/WX    TMP DP  RH WIND       PRES   REMARKS
ADRIAN         CLOUDY    69  67  93 SE8       29.97R
ALMA           CLOUDY    67  67 100 E7        29.94S FOG
ANN ARBOR      CLOUDY    68  67  96 S7        29.96R
BAD AXE        CLOUDY    67  66  97 CALM      29.97S
DETROIT CITY   CLOUDY    69  66  90 S7        29.96S
DETROIT        CLOUDY    70  68  93 SE6       29.96F
FLINT          CLOUDY    71  65  81 S9        29.95R
GROSSE ILE     CLOUDY    72  66  83 SE9       29.95F
HILLSDALE      LGT RAIN  71  71 100 SE5       29.95F
HOWELL         CLOUDY    67  66  97 SE8       29.96R

CITY           SKY/WX    TMP DP  RH WIND       PRES   REMARKS
JACKSON        CLOUDY    69  68  96 S5        29.94S
LANSING        CLOUDY    69  67  93 S5        29.95R FOG
MASON          CLOUDY    68  65  90 SE3       29.95R FOG
MONROE         CLOUDY    70  67  90 SE5       29.95S
MT. CLEMENS    CLOUDY    69  68  95 S5        29.94S
PONTIAC        CLOUDY    68  67  96 S7        29.96S
PORT HOPE        N/A     70  68  93 E9        29.96S
PORT HURON     CLOUDY    66  66 100 CALM      29.96S FOG
TRI CITIES     CLOUDY    69  66  90 CALM      29.95S
YPSILANTI      CLOUDY    72  68  87 S12       29.96S
$$
MIZ043>046-050>051-056>058-064>065-071>073-077>080-040800-
SOUTHWEST LOWER MICHIGAN

CITY           SKY/WX    TMP DP  RH WIND       PRES   REMARKS
BATTLE CREEK   MOCLDY    68  66  93 W5        29.95S
BENTON HARBOR  CLOUDY    70  66  87 CALM      29.95S
BIG RAPIDS     CLOUDY    67  66  97 E3        29.95R FOG
COLDWATER      CLOUDY    72  71  99 CALM      29.95S FOG
HOLLAND        PTCLDY    66  64  93 W3        29.95S FOG
GRAND RAPIDS   CLOUDY    68  67  96 W6        29.94S FOG
KALAMAZOO      CLOUDY    69  66  90 W6        29.95S
MARSHALL       MOCLDY    71  69  93 CALM      29.94S FOG
MOUNT PLEASANT CLOUDY    68  66  94 NE5       29.94S FOG
MUSKEGON       CLOUDY    70  66  87 NW3       29.95R
STURGIS        PTCLDY    70  70 100 W5        29.95S FOG
$$
MIZ016>042-040800-
NORTHERN LOWER MICHIGAN

CITY           SKY/WX    TMP DP  RH WIND       PRES   REMARKS
ALPENA         CLOUDY    67  65  93 E5        30.00S
BEAVER ISLAND  PTCLDY    67  65  93 E3        30.01R
BELLAIRE       CLOUDY    67  65  94 NW3       29.98S
CADILLAC       CLOUDY    66  65  98 E8        29.97S FOG
CHARLEVOIX     CLOUDY    67  66  96 CALM      30.02S
GAYLORD        CLOUDY    66  66 100 E6        30.00S
HOUGHTON LAKE  CLOUDY    66  64  93 E6        29.98S
MANISTEE       CLOUDY    68  64  88 E3        29.96R
OSCODA         CLOUDY    67  67  99 NE7       29.97S FOG
PELLSTON       MOCLDY    66  64  93 NE7       30.01R
TRAVERSE CITY  CLOUDY    69  65  86 NE6       29.97R
LUDINGTON      CLOUDY    71  69  93 CALM      29.95R
$$
MIZ007>008-015-040800-
EASTERN UPPER MICHIGAN

CITY           SKY/WX    TMP DP  RH WIND       PRES   REMARKS
KINROSS        MOCLDY    66  61  82 E7        30.04R
MACKINAC ISLAN MOCLDY    66  62  86 NE9       30.02S
NEWBERRY       PTCLDY    62  59  91 CALM      30.03R
S. S. MARIE    PTCLDY    66  58  75 VRB3      30.04R
$$
MIZ004>006-011>014-085-040800-
CENTRAL UPPER MICHIGAN

CITY           SKY/WX    TMP DP  RH WIND       PRES   REMARKS
MANISTIQUE     CLEAR     62  59  92 N3        30.01S
ESCANABA       CLEAR     63  59  88 NW3       30.00S
MENOMINEE      CLEAR     63  59  88 N5        30.01R
$$
MIZ001>003-009>011-084-040800-
WESTERN UPPER MICHIGAN

CITY           SKY/WX    TMP DP  RH WIND       PRES   REMARKS
IRON MOUNTAIN  CLEAR     60  58  92 CALM      30.04R
HOUGHTON       CLEAR     57  56  96 NE5       30.05R
COPPER HARBOR    N/A     64  57  78 SW3       30.04R
IRONWOOD       CLEAR     63  61  94 E3        30.00F
$$

ABBREVIATIONS USED IN REMARKS
   TC - TEMPERATURE IN CELSIUS
  WCI - WIND CHILL INDEX
   HX - HEAT INDEX
  VSB - VISIBILITY



USA.gov is the U.S. government's official web portal to all federal, state and local government web resources and services.